DW5244 Weather Reports


Display with metric or nautical units.
time (UTC)temp
F
wind
direction
speed
MPH
gust
MPH
rain 1hr
in
rain 24hr
in
rain mn
in
humidity
%
barometer
mb
20260901054550 81 238 2.0 6.0 0.00 0.00 0.00 44 1015.6
20260901053048 82 227 3.0 8.0 0.00 0.00 0.00 43 1015.5
20260901051545 82 219 1.0 8.0 0.00 0.00 0.00 43 1015.5
20260901050042 82 240 2.0 9.0 0.00 0.00 0.00 41 1015.3
20260901044546 83 241 6.0 15.0 0.00 0.00 0.00 41 1015.1
20260901043042 83 221 3.0 10.0 0.00 0.00 0.00 40 1015.1
20260901041555 84 217 7.0 13.0 0.00 0.00 0.00 40 1015.1
20260901040040 84 215 6.0 15.0 0.00 0.00 0.00 39 1015.1
20260901034540 85 202 8.0 13.0 0.00 0.00 0.00 39 1015.0
20260901033039 85 192 8.0 14.0 0.00 0.00 0.00 40 1014.9
20260901031539 86 194 8.0 19.0 0.00 0.00 0.00 40 1014.7
20260901030038 87 204 6.0 19.0 0.00 0.00 0.00 38 1014.2
20260901024540 87 192 9.0 23.0 0.00 0.00 0.00 38 1013.8
20260901023043 88 208 14.0 26.0 0.00 0.00 0.00 36 1013.1
20260901021538 90 185 13.0 25.0 0.00 0.00 0.00 33 1012.6
20260901020036 91 221 7.0 18.0 0.00 0.00 0.00 28 1012.0
20260901014536 91 225 7.0 14.0 0.00 0.00 0.00 28 1011.6
20260901013034 92 232 6.0 16.0 0.00 0.00 0.00 28 1011.2
20260901011534 92 215 4.0 11.0 0.00 0.00 0.00 27 1011.1
20260901010033 93 211 4.0 10.0 0.00 0.00 0.00 24 1011.0
20260901004533 94 207 4.0 11.0 0.00 0.00 0.00 24 1010.9
20260901003032 94 236 4.0 11.0 0.00 0.00 0.00 25 1011.0
20260901001531 95 360 3.0 9.0 0.00 0.00 0.00 24 1011.2
20260901000034 96 360 6.0 14.0 0.00 0.00 0.00 23 1011.0
20260831234534 96 250 6.0 10.0 0.00 0.00 0.00 24 1011.0
20260831233028 96 204 2.0 12.0 0.00 0.00 0.00 25 1010.9
20260831231539 96 209 5.0 12.0 0.00 0.00 0.00 25 1010.9
20260831230036 99 225 2.0 10.0 0.00 0.00 0.00 24 1011.1
20260831224526 97 202 4.0 9.0 0.00 0.00 0.00 27 1011.1
20260831223024 95 155 2.0 8.0 0.00 0.00 0.00 27 1011.3
20260831221523 91 190 3.0 8.0 0.00 0.00 0.00 26 1011.7
20260831220022 91 355 10.0 17.0 0.00 0.00 0.00 29 1011.9
20260831214525 95 169 15.0 23.0 0.00 0.00 0.00 27 1012.0
20260831213020 100 234 2.0 11.0 0.00 0.00 0.00 22 1011.9
20260831211528 101 248 5.0 10.0 0.00 0.00 0.00 21 1012.1
20260831210014 98 296 1.0 12.0 0.00 0.00 0.00 23 1012.4
20260831204512 99 269 6.0 10.0 0.00 0.00 0.00 23 1012.7
20260831203017 99 360 4.0 8.0 0.00 0.00 0.00 27 1012.9
20260831201506 96 355 6.0 12.0 0.00 0.00 0.00 25 1013.3
20260831200003 94 330 5.0 12.0 0.00 0.00 0.00 29 1013.6
20260831194502 95 360 6.0 12.0 0.00 0.00 0.00 27 1014.0
20260831193001 95 320 3.0 13.0 0.00 0.00 0.00 28 1014.2
20260831191558 95 278 3.0 13.0 0.00 0.00 0.00 27 1014.4
20260831190100 95 275 9.0 13.0 0.00 0.00 0.00 28 1014.6
20260831184600 94 269 0.0 13.0 0.00 0.00 0.00 30 1014.8
20260831183055 94 269 7.0 11.0 0.00 0.00 0.00 29 1015.0
20260831181551 95 250 7.0 11.0 0.00 0.00 0.00 30 1015.2
20260831180048 93 277 10.0 16.0 0.00 0.00 0.00 29 1015.5
20260831174546 92 254 3.0 14.0 0.00 0.00 0.00 30 1015.6
20260831173042 92 240 4.0 9.0 0.00 0.00 0.00 32 1015.7
20260831171543 93 271 5.0 12.0 0.00 0.00 0.00 31 1015.8
20260831170038 91 244 3.0 8.0 0.00 0.00 0.00 35 1015.9
20260831164537 89 360 9.0 15.0 0.00 0.00 0.00 34 1016.2
20260831163033 90 249 3.0 12.0 0.00 0.00 0.00 35 1016.2
20260831161533 90 360 6.0 14.0 0.00 0.00 0.00 35 1016.0
20260831160028 88 232 11.0 15.0 0.00 0.00 0.00 37 1016.0
20260831154524 87 360 2.0 12.0 0.00 0.00 0.00 40 1015.9
20260831153020 86 231 4.0 10.0 0.00 0.00 0.00 41 1015.9
20260831151519 86 225 4.0 10.0 0.00 0.00 0.00 41 1016.0
20260831150016 83 329 0.0 2.0 0.00 0.00 0.00 47 1016.0
20260831144514 82 327 0.0 5.0 0.00 0.00 0.00 48 1016.1
20260831143010 81 336 3.0 5.0 0.00 0.00 0.00 49 1016.1
20260831141507 79 332 1.0 3.0 0.00 0.00 0.00 54 1016.2
20260831140005 78 332 3.0 6.0 0.00 0.00 0.00 52 1016.1
20260831134503 77 348 5.0 9.0 0.00 0.00 0.00 53 1016.0
20260831133059 73 347 6.0 10.0 0.00 0.00 0.00 58 1015.7
20260831131557 74 355 4.0 8.0 0.00 0.00 0.00 56 1015.4
20260831130109 74 23 5.0 11.0 0.00 0.00 0.00 57 1015.4
20260831124551 72 346 5.0 8.0 0.00 0.00 0.00 58 1015.2
20260831123048 73 29 2.0 8.0 0.00 0.00 0.00 56 1014.9
20260831121547 73 341 7.0 10.0 0.00 0.00 0.00 55 1014.9
20260831120046 73 355 5.0 11.0 0.00 0.00 0.00 56 1014.8
20260831114543 72 360 1.0 6.0 0.00 0.00 0.00 57 1014.6
20260831113041 73 360 4.0 8.0 0.00 0.00 0.00 56 1014.6
20260831111538 74 342 0.0 4.0 0.00 0.00 0.00 55 1014.3
20260831110040 74 360 2.0 5.0 0.00 0.00 0.00 55 1014.3
20260831104540 74 360 3.0 6.0 0.00 0.00 0.00 54 1014.4
20260831103035 76 360 2.0 8.0 0.00 0.00 0.00 52 1014.4
20260831101535 75 335 3.0 5.0 0.00 0.00 0.00 53 1014.3
20260831100031 76 344 2.0 4.0 0.00 0.00 0.00 52 1014.1
20260831094527 77 344 1.0 3.0 0.00 0.00 0.00 50 1014.2
20260831093025 78 343 3.0 6.0 0.00 0.00 0.00 49 1014.2
20260831091521 78 360 3.0 5.0 0.00 0.00 0.00 48 1014.3
20260831090018 80 360 1.0 10.0 0.00 0.00 0.00 45 1014.3
20260831084516 80 360 1.0 9.0 0.00 0.00 0.00 45 1014.3
20260831083029 80 360 2.0 9.0 0.00 0.00 0.00 44 1014.2
20260831081512 81 360 2.0 11.0 0.00 0.00 0.00 43 1014.4
20260831080011 81 360 5.0 12.0 0.00 0.00 0.00 42 1014.4
20260831074510 82 360 3.0 12.0 0.00 0.00 0.00 43 1014.6
20260831073014 82 360 8.0 15.0 0.00 0.00 0.00 42 1014.6
20260831071507 82 360 2.0 12.0 0.00 0.00 0.00 44 1014.9
20260831070011 82 360 5.0 13.0 0.00 0.00 0.00 43 1014.7
20260831064504 82 360 9.0 16.0 0.00 0.00 0.00 43 1014.8
20260831063101 83 360 6.0 16.0 0.00 0.00 0.00 43 1014.7
20260831061557 83 255 8.0 16.0 0.00 0.00 0.00 42 1014.7
20260831060104 83 360 9.0 15.0 0.00 0.00 0.00 42 1014.7